Flag for U.S.A. Weather past 2 weeks in Tucson, Arizona, U.S.A.

Now
84 °F

Passing clouds.


Feels Like: 84 °F
Forecast: 73 / 90 °F
Wind: 7 mph from East

Location: Davis-Monthan Air Force Base

Current Time: Sep 3, 2015 at 10:19:32 AM

Latest Report: Sep 3, 2015 at 9:58 AM


Visibility: 10 mi

Pressure: 29.87 "Hg (27.41 "Hg at 758m altitude)

Humidity: 47%

Dew point: 61 °F

Location of TucsonLocation

Historic Weather in Tucson — Graph

°F

Tucson temperature yesterday

Maximum temperature yesterday: 91 °F (at 1:58 PM)
Minimum temperature yesterday: 76 °F (at 6:58 AM)
Average temperature yesterday: 83 °F

Past Weeks' High & Low Weather Summary

 TemperatureHumidityPressure
High103 °F (Aug 29, 2:58 PM)88% (Aug 25, 2:03 AM)30.06 "Hg (Aug 25, 2:03 AM)
Low70 °F (Sep 1, 1:03 AM)19% (Aug 19, 5:58 PM)29.69 "Hg (Aug 19, 5:58 PM)
Average84 °F50%29.85 "Hg
* Reported Aug 19 8:58 AM — Sep 3 8:58 AM, Tucson, Weather by CustomWeather, © 2015

Note: Actual official high and low records may vary slightly from our data, if they occured in-between our weather recording intervals... More about our weather records

Advertising

Tucson weather history for previous 24 hours

 ConditionsComfort  
Time TempWeatherWind HumidityBarometerVisibility
8:58 AM
Thu, Sep 3
81 °FSunny.7 mph53%29.89 "Hg10 mi
7:58 AM77 °FSunny.9 mph61%29.89 "Hg10 mi
6:58 AM75 °FPassing clouds.3 mph66%29.88 "Hg10 mi
5:58 AM74 °FPassing clouds.6 mph65%29.85 "Hg10 mi
4:58 AM74 °FClear.8 mph63%29.85 "Hg10 mi
3:58 AM76 °FPassing clouds.9 mph58%29.84 "Hg10 mi
2:58 AM77 °FClear.12 mph57%29.83 "Hg10 mi
1:58 AM77 °FPassing clouds.16 mph56%29.83 "Hg10 mi
12:58 AM77 °FPassing clouds.8 mph57%29.84 "Hg10 mi
11:58 PM
Wed, Sep 2
79 °FPassing clouds.8 mph51%29.85 "Hg10 mi
10:58 PM80 °FClear.12 mph48%29.85 "Hg10 mi
9:58 PM81 °FPassing clouds.13 mph46%29.85 "Hg10 mi
8:58 PM82 °FClear.12 mph46%29.85 "Hg10 mi
7:58 PM84 °FClear.10 mph38%29.84 "Hg10 mi
6:58 PM83 °FClear.9 mph45%29.82 "Hg10 mi
5:58 PM86 °FPassing clouds.13 mph41%29.82 "Hg10 mi
4:58 PM89 °FPassing clouds.15 mph36%29.80 "Hg10 mi
3:58 PM88 °FSunny.14 mph39%29.81 "Hg10 mi
2:58 PM88 °FSunny.21 mph43%29.82 "Hg10 mi
1:58 PM91 °FSunny.3 mph30%29.84 "Hg10 mi
12:58 PM91 °FSunny.8 mph33%29.86 "Hg10 mi
11:58 AM88 °FPassing clouds.3 mph42%29.89 "Hg10 mi
10:58 AM86 °FPartly sunny.No wind46%29.91 "Hg10 mi
Weather by CustomWeather, © 2015

See weather overviewHow to use our weather pages